Regional Weather Roundup
Issued by NWS Sterling, VA

Home | Current Version | Previous Version | Graphics & Text | Print | Product List | Glossary On
Versions: 1 2 3 4 5 6 7 8 9 10 11 12 13 14 15 16 17 18 19 20 21 22 23 24 25 26 27
000
ASUS41 KLWX 291011
RWRLWX

REGIONAL WEATHER ROUNDUP
NATIONAL WEATHER SERVICE BALTIMORE MD/WASHINGTON DC
600 AM EDT WED MAR 29 2017

Note: "FAIR" indicates few or no clouds below 12,000 feet
with no significant weather and/or obstructions to visibility.
 TC=TEMPERATURE CELSIUS

 * =Non NWS site. Station does not report precipitation (e.g. rain,
    snow, etc.), thunder, or fog.

DCZ001-MDZ009-015-VAZ040>042-051-053>054-291100-
WASHINGTON METRO

CITY           SKY/WX    TMP DP  RH WIND       PRES   REMARKS
WASHINGTON NAT CLOUDY    58  52  80 N12       30.03R
DULLES         CLOUDY    57  52  83 N9        30.03R
ANDREWS AFB    CLOUDY    56  48  73 N14       30.02R
FT BELVOIR     CLOUDY    57  52  82 N3        30.03R
QUANTICO       CLOUDY    59  55  87 NE9       30.03R
COLLEGE PARK*  CLOUDY    56  47  72 N7        30.04R
LEESBURG*      CLOUDY    57  54  88 N5        30.05R
MANASSAS*      CLOUDY   N/A N/A N/A N13       30.04R

$$

MDZ006>007-011-014-291100-
BALTIMORE METRO

CITY           SKY/WX    TMP DP  RH WIND       PRES   REMARKS
BWI AIRPORT    CLOUDY    54  46  74 N6        30.03R
MD SCIENCE CTR   N/A     55  42  61 MISG      30.04R
MARTIN STATE   PTCLDY    54  46  76 N7        30.05R
ANNAPOLIS      CLOUDY    56  48  74 N7        30.03R
FORT MEADE*    CLOUDY    54  43  66 N6G16     30.06R

$$

MDZ012-015-019>023-291100-
MARYLAND EASTERN SHORE

CITY           SKY/WX    TMP DP  RH WIND       PRES   REMARKS
OCEAN CITY     PTCLDY    49  45  86 N7        30.00R
SALISBURY      CLOUDY    51  50  96 N6        30.00R
BAY BRIDGE AP* CLOUDY    54  45  71 NE13G18   30.03R
CAMBRIDGE*     CLOUDY    55  50  82 N6        30.02R
EASTON*        MOCLDY    55  50  82 N10       30.05R

$$

MDZ017>025-291100-
SOUTHERN MARYLAND

CITY           SKY/WX    TMP DP  RH WIND       PRES   REMARKS
PATUXENT RIVER CLOUDY    55  55 100 NE7       30.01R
ST INIGOES     CLOUDY    57  53  86 N6        30.00R
LEONARDTOWN*   CLOUDY    54  52  94 N6        30.03R

$$

MDZ003>005-291100-
NORTH CENTRAL MARYLAND

CITY           SKY/WX    TMP DP  RH WIND       PRES   REMARKS
FREDERICK*     CLOUDY    54  54 100 NE8       30.08R
HAGERSTOWN APT CLOUDY    53  47  79 N10       30.06R
WESTMINSTER*   CLOUDY    48  45  87 N8G18     30.05R

$$

MDZ501>502-291100-
WESTERN MARYLAND

CITY           SKY/WX    TMP DP  RH WIND       PRES   REMARKS
OAKLAND*       FOG       37  37 100 CALM      30.08S VSB 1/2
CUMBERLAND*    CLOUDY    52  43  71 NW8G16    30.13R

$$

VAZ025>031-291100-
SHENANDOAH VALLEY

CITY           SKY/WX    TMP DP  RH WIND       PRES   REMARKS
WINCHESTER*    CLOUDY    52  45  76 NW15      30.05R
FRONT ROYAL*   MOCLDY    54  46  76 NW6       30.04R
LURAY*         CLEAR     55  46  71 N15       30.04R
NEW MARKET*    CLOUDY    51  47  84 E3        30.04R
STAUNTON*      CLEAR     44  44  97 CALM      30.05R
WAYNESBORO*    CLEAR     51  50  96 N8        30.04R

$$

WVZ021-048>050-054>055-291100-
EASTERN WEST VIRGINIA PANHANDLE

CITY           SKY/WX    TMP DP  RH WIND       PRES   REMARKS
MARTINSBURG    CLOUDY    54  45  71 N12G20    30.05R
PETERSBURG*    MOCLDY    55  46  73 NE9       30.07S

$$

VAZ036>039-050-291100-
CENTRAL FOOTHILLS

CITY           SKY/WX    TMP DP  RH WIND       PRES   REMARKS
CHARLOTTESVILL MOCLDY    58  52  80 N3        30.02R
CULPEPER*      CLOUDY    58  51  77 N9        30.04R
ORANGE*        MOCLDY    52  50  93 N5        30.03R
GORDONSVILLE*  PTCLDY    49  49 100 CALM      30.02R FOG
WARRENTON*     CLOUDY    59  47  64 N13       30.03R

$$

VAZ055>057-291100-
NORTH AND CENTRAL PIEDMONT

CITY           SKY/WX    TMP DP  RH WIND       PRES   REMARKS
FREDERICKSBRG* CLOUDY    60  55  83 N6        30.01R
STAFFORD*      CLOUDY    57  54  89 N5        30.06R

$$

NCZ024-NYZ072-PAZ021-071-VAZ022-071-291100-
OTHER REGIONAL OBSERVATIONS

CITY           SKY/WX    TMP DP  RH WIND       PRES   REMARKS
NEW YORK CITY  CLOUDY    45  39  79 VRB5      30.03R
PHILADELPHIA   PTCLDY    48  40  73 N17       30.03R
PITTSBURGH     CLOUDY    45  41  86 N6        30.14R
ROANOKE        PTCLDY    57  48  72 N6        30.05R
RICHMOND       MOCLDY    58  55  90 N5        30.00R
RALEIGH        CLEAR     58  50  75 CALM      30.00R

$$

ANZ530>537-291100-
MARINE OBSERVATIONS

STATION/POSITION TIME  TEMP    WIND        PRES
                       AIR SEA DIR/SP/G
                 (UTC) (F)     (DEG/KT/KT) (MB)
THOMAS PT LIGHT  1000   51 47   20/ 14/ 15   N/A
BALT KEY BRIDGE  0948   54     350/ 11/ 13 1016.9R
COVE POINT       0948   52      20/  9/ 11 1016.9R
LEWISETTA        0948   56 52   20/  3/  4 1015.6R
SOLOMONS ISLAND  0948   56 48  360/  4/  5   N/A
PINEY POINT      0948           30/  7/  8   N/A

$$





USA.gov is the U.S. government's official web portal to all federal, state and local government web resources and services.